Theta_e
306 307 308 309 310 310 310 311 311 311 310 309 307 306 306 306 306 307 308 309 310 310 311 312 314 314 315 315 315 315 316 317 318 318 319 319 320 321 321 321 321 320 320 320 320 320 321 321 321 322 322 321 321 320 319 319 318 318 318 318 317 316 316 315 315 314 314 314 314
306 307 308 310 310 310 310 310 309 309 309 308 308 307 307 307 307 308 309 309 311 311 312 314 314 314 315 314 314 315 316 317 317 318 318 319 319 320 320 320 320 320 320 320 321 321 321 321 321 321 321 321 320 319 319 320 319 319 319 318 318 317 316 315 315 315 314 314 314
306 307 309 309 309 309 308 308 308 307 307 307 307 307 307 308 308 309 310 310 310 311 312 313 314 314 314 313 314 315 316 317 317 318 318 318 319 320 320 320 320 320 320 321 321 321 321 320 320 320 320 320 320 319 319 319 319 319 318 318 318 317 317 316 315 314 314 314 313
307 308 309 309 308 307 307 308 307 307 307 307 307 307 307 309 310 310 311 311 310 310 312 314 314 314 313 313 313 314 315 317 317 318 318 319 319 319 319 319 319 320 320 320 320 320 320 320 320 320 319 319 319 319 319 319 319 319 318 318 318 317 317 317 315 315 314 314 312
308 309 309 309 307 306 307 307 307 307 307 307 307 308 309 310 311 311 311 311 312 313 314 314 314 314 314 314 314 315 315 317 317 317 318 318 319 319 319 318 318 319 320 320 320 320 320 319 320 319 319 319 319 318 318 318 318 318 318 318 318 317 317 317 315 315 314 314 312
309 309 308 308 308 308 309 309 308 308 308 308 308 309 309 311 311 312 312 314 314 315 315 315 315 315 315 315 315 315 315 316 316 316 316 316 317 318 319 318 318 318 319 320 320 319 319 319 318 318 318 318 318 318 317 316 317 317 317 317 317 316 315 315 314 314 314 314 312
308 308 308 310 311 312 312 311 311 310 310 310 310 309 310 310 310 310 312 314 315 316 316 317 317 317 316 316 315 315 315 315 315 315 315 315 316 317 318 318 318 318 318 319 319 319 318 318 318 317 317 317 318 317 316 316 316 316 316 316 315 315 314 313 313 313 313 312 311
308 309 310 312 312 312 312 311 311 312 312 312 311 310 309 309 309 310 312 313 315 315 316 316 317 317 316 316 316 316 315 315 315 315 315 315 316 317 318 318 317 317 318 319 319 318 318 317 317 316 316 316 316 316 317 316 316 315 315 315 315 314 313 313 312 312 311 310 309
308 309 311 310 310 311 311 311 311 311 311 310 310 309 309 309 310 312 313 313 314 315 315 316 316 317 317 317 317 316 316 316 316 316 316 317 317 317 317 317 317 317 318 318 318 317 317 317 316 315 315 315 315 315 316 316 316 315 315 315 314 314 313 313 312 311 310 309 308
308 308 308 308 308 309 311 312 311 310 309 309 309 309 310 311 312 313 314 314 315 315 315 316 316 317 317 317 317 317 317 316 316 317 317 317 317 317 317 317 317 317 318 318 318 317 316 316 315 314 314 314 314 314 314 315 315 314 314 314 314 313 313 313 312 311 310 308 307
308 308 308 308 309 311 311 310 309 309 309 309 309 310 311 312 312 313 314 315 315 315 315 316 316 317 317 317 317 317 317 317 317 317 317 317 317 317 317 317 318 318 317 317 317 317 316 315 314 314 313 314 313 313 314 314 314 314 314 313 313 313 313 312 312 311 311 310 308
310 310 310 311 312 311 310 308 309 309 309 309 309 310 311 312 312 313 314 315 315 315 315 316 317 317 317 317 317 317 317 317 317 317 316 316 316 317 317 318 318 317 317 317 317 316 316 315 314 313 313 313 314 313 313 313 314 313 313 313 313 313 313 312 312 312 312 310 308
311 312 312 313 312 311 310 310 311 311 310 310 310 311 311 311 312 313 314 315 315 315 316 317 317 317 317 317 317 317 317 317 317 317 316 316 316 317 317 318 318 317 317 317 316 316 315 314 314 314 313 313 314 313 313 313 313 314 313 313 313 313 313 313 312 312 311 309 308
312 313 313 313 312 311 311 311 311 311 311 311 311 311 311 311 312 314 315 315 315 316 317 317 317 317 318 318 317 317 317 317 317 316 316 316 316 317 317 318 317 318 318 317 316 315 315 315 314 314 314 314 314 313 313 313 314 314 313 313 313 313 313 313 312 312 310 309 307
312 313 314 313 311 311 310 309 310 310 311 311 311 312 312 313 314 314 315 316 316 316 317 317 317 317 317 318 317 317 317 317 316 316 316 315 316 317 317 317 317 317 318 318 317 316 315 315 315 315 315 314 314 313 313 314 314 314 314 314 314 313 313 313 312 311 310 308 307
312 313 313 311 310 309 308 308 309 310 310 310 310 311 312 314 314 315 316 316 316 316 317 317 316 316 317 317 317 317 317 316 316 316 316 316 316 316 317 317 317 317 317 317 317 316 316 315 316 315 315 315 314 314 314 314 314 314 314 314 314 313 313 312 311 311 310 308 307
313 312 311 309 308 307 307 307 308 309 309 310 310 310 311 313 314 315 316 316 316 316 316 316 316 316 316 316 317 317 317 316 316 316 316 316 316 317 317 317 317 317 317 317 316 316 316 316 316 316 316 315 315 315 315 315 315 315 314 315 314 314 313 312 311 310 309 308 307
312 312 310 308 307 307 308 308 308 308 309 310 311 311 311 313 314 315 316 316 315 315 315 315 315 316 316 316 316 316 316 316 316 316 316 317 317 317 317 317 317 317 317 316 316 316 316 316 316 315 316 316 315 315 315 315 315 315 315 315 314 313 312 312 311 310 309 308 307
308 309 309 309 309 309 310 310 310 310 310 311 312 312 312 313 314 314 315 316 315 315 315 315 315 315 315 316 316 316 316 316 316 316 317 317 317 317 316 316 317 317 316 316 315 315 315 315 316 315 315 315 316 316 316 316 316 315 315 314 313 312 311 310 309 308 308 307 307
306 307 308 310 311 312 312 312 312 312 313 314 314 314 313 313 313 314 314 315 315 316 316 316 315 315 315 315 316 316 316 316 316 317 317 317 317 316 316 316 316 316 316 316 316 315 315 315 315 315 315 315 315 315 315 315 315 315 314 313 312 311 310 309 308 307 306 306 306
306 307 308 310 312 312 311 311 312 313 314 315 314 314 314 313 313 313 314 315 316 316 317 317 316 315 315 315 315 315 315 315 316 316 316 317 316 316 316 316 316 316 316 316 316 316 315 315 315 315 315 315 315 315 315 314 314 313 313 312 311 309 308 308 307 307 306 306 306
307 306 307 309 311 311 310 310 312 313 314 314 312 313 314 314 313 313 313 315 316 316 317 317 315 314 314 313 312 313 313 314 315 316 316 317 316 316 316 316 316 316 316 316 316 316 316 315 315 315 315 315 314 314 314 313 312 311 310 309 308 308 308 307 307 307 306 306 306
307 306 306 307 310 310 309 309 311 312 313 313 311 311 311 313 313 312 312 314 315 315 315 314 313 312 311 311 311 312 313 314 314 315 316 316 316 316 316 317 316 316 316 316 316 316 316 315 315 315 314 314 313 313 312 312 310 309 308 308 308 307 308 307 308 308 307 307 308
307 307 307 307 310 310 310 311 312 313 313 313 313 312 312 312 311 310 311 314 315 315 314 313 312 311 311 311 311 311 312 314 314 315 316 316 316 316 316 316 316 316 316 316 316 315 315 315 314 314 313 313 313 312 312 311 310 309 308 308 307 307 307 307 308 308 308 308 309
307 308 309 309 311 311 311 311 313 313 314 313 314 314 314 314 312 312 312 314 315 315 314 312 311 312 312 312 312 312 313 314 314 315 315 316 316 316 316 316 316 316 316 316 315 315 315 315 315 314 313 313 313 312 311 310 310 309 308 308 308 307 307 307 307 307 308 308 308
308 309 311 311 312 311 311 312 313 313 314 314 315 316 316 316 315 315 315 315 316 316 316 315 313 313 313 314 314 314 314 315 315 315 315 315 315 315 315 315 316 316 316 315 314 315 315 315 314 314 313 313 313 311 311 310 309 309 308 308 308 307 307 306 306 306 306 306 306
309 311 313 313 312 312 312 312 313 313 314 314 314 315 316 317 317 317 316 316 317 317 317 316 315 314 314 315 315 315 314 314 315 315 315 315 315 315 315 315 316 316 315 314 314 315 315 315 314 313 313 313 312 311 310 309 308 308 308 308 307 307 307 306 305 305 305 305 305
307 310 313 314 314 313 313 313 313 313 314 314 314 315 317 317 317 317 317 317 316 316 316 315 315 315 315 315 314 314 314 314 314 314 315 315 315 315 315 315 315 315 314 314 315 315 315 315 314 313 312 312 311 310 309 308 308 308 307 307 307 307 306 306 305 304 304 304 304
307 311 313 314 314 314 314 314 314 314 314 314 314 315 317 317 317 316 316 316 315 315 315 315 315 315 315 314 314 314 314 314 314 314 314 314 314 314 314 314 314 314 314 314 315 315 314 314 313 313 312 311 311 310 309 308 308 307 307 307 306 306 306 305 305 304 303 303 302
311 312 313 312 312 312 312 312 314 314 314 314 313 314 316 316 316 316 316 315 315 315 316 316 316 316 315 314 314 314 314 314 315 314 314 314 313 313 313 313 314 314 313 314 314 314 314 313 312 312 311 311 310 309 308 308 307 307 306 306 306 305 305 304 304 303 302 302 301
312 312 313 312 312 312 312 313 314 315 316 315 314 315 316 315 314 314 314 314 314 314 314 315 314 314 314 314 314 314 314 314 314 314 314 313 313 313 313 314 314 313 313 313 314 314 313 312 312 311 311 310 309 308 308 308 307 306 306 305 305 304 304 304 303 302 301 301 300
312 312 313 313 312 313 314 315 316 316 317 317 316 314 313 312 312 311 311 311 311 312 312 312 312 311 311 311 312 312 312 312 313 313 313 313 313 313 313 313 313 313 312 312 313 313 312 312 311 311 310 309 308 307 307 307 306 306 305 304 304 304 304 303 303 302 301 300 300
311 312 312 313 313 314 314 314 314 314 314 314 313 312 311 310 310 310 310 310 310 310 310 310 310 309 309 309 309 309 310 310 311 311 312 312 312 312 312 312 312 312 312 312 312 312 312 311 310 310 309 308 307 306 306 305 305 304 304 304 304 303 303 302 301 301 300 300 299
311 312 312 313 313 313 312 312 312 312 312 312 311 311 310 310 309 309 308 308 308 308 308 308 308 308 308 308 308 308 308 309 309 310 310 311 311 311 311 311 312 311 311 312 312 311 310 310 309 309 308 307 306 305 305 304 304 303 303 302 302 302 302 301 301 300 300 299 298
311 311 312 312 312 311 311 310 310 310 310 310 310 310 310 309 308 308 307 307 307 306 306 306 306 306 306 306 306 307 307 307 308 309 309 309 309 309 309 309 310 310 310 311 310 310 310 309 308 308 306 306 305 304 303 303 302 301 301 301 301 301 300 300 300 299 299 298 297
310 311 310 310 310 310 310 310 309 309 308 308 308 308 308 308 308 307 306 306 306 305 305 305 305 305 305 305 305 306 306 306 307 307 308 308 308 308 308 308 308 309 309 310 309 309 309 308 308 306 306 304 303 302 302 301 301 300 300 299 299 299 299 299 298 298 297 297 297
310 310 310 309 309 309 308 308 308 308 307 307 307 306 306 306 306 306 306 305 305 304 303 303 303 303 303 303 303 304 304 305 306 306 306 307 307 306 306 306 307 307 308 308 309 308 308 307 306 306 304 303 302 301 301 300 300 299 298 298 298 298 298 298 298 297 297 297 297
309 309 309 308 308 308 307 307 306 306 306 306 306 305 305 305 305 305 305 304 303 303 302 302 302 302 302 302 302 303 303 304 305 305 305 305 305 305 305 305 305 306 306 307 307 307 307 306 306 305 304 302 301 301 300 300 299 298 298 297 297 297 298 298 298 298 297 297 297
308 308 308 308 307 307 306 306 306 305 305 304 304 304 304 304 303 303 303 303 303 302 301 301 301 301 301 301 301 301 302 303 303 303 304 304 304 304 304 304 304 305 305 306 306 306 306 306 305 304 303 302 301 300 300 299 298 297 297 297 296 297 297 298 298 298 298 298 298
307 308 308 307 307 306 306 306 305 305 304 304 304 303 303 303 303 303 302 302 302 301 301 301 300 301 301 301 301 301 301 301 302 303 303 303 303 303 303 303 303 304 304 304 305 305 305 305 304 304 303 302 301 300 299 298 297 297 296 296 296 296 296 297 297 298 298 298 298
307 307 307 307 306 306 305 305 305 304 304 304 303 303 303 303 302 302 302 301 301 301 301 300 300 300 300 300 300 300 300 300 301 301 302 302 303 303 303 303 303 303 303 304 304 305 305 305 304 304 303 301 300 300 299 298 297 296 295 295 295 295 296 296 296 297 297 297 298
Wind_Speed
5 5 4 4 4 5 5 6 6 6 6 5 5 5 5 5 6 6 5 5 5 5 5 5 5 5 5 5 5 5 5 6 6 7 7 8 8 9 10 8 7 8 8 9 10 10 12 14 12 9 7 6 6 6 6 5 6 7 7 7 6 6 7 8 7 7 7 7 5
6 6 5 5 5 5 5 5 5 6 6 6 6 5 5 5 6 6 6 6 6 5 5 5 5 5 5 5 5 5 5 6 7 7 7 8 9 10 9 8 7 7 8 10 11 11 11 12 9 7 6 5 6 6 6 6 6 7 8 8 7 6 7 7 7 7 8 7 5
6 5 5 5 5 5 5 5 6 6 7 7 6 6 5 5 5 6 6 6 6 5 5 4 5 5 5 5 5 5 5 5 6 7 7 8 9 9 9 8 7 8 9 10 12 11 10 9 7 6 5 5 6 6 6 6 7 8 9 9 7 6 6 6 6 6 6 5 5
6 6 6 6 7 7 7 6 7 8 8 7 6 6 6 5 6 6 6 6 5 5 5 5 5 5 5 5 5 5 5 6 6 7 8 8 8 8 8 10 9 9 10 11 12 11 10 9 7 6 5 6 7 6 6 6 7 7 7 7 6 6 6 6 6 5 5 5 5
6 6 6 6 7 8 8 7 8 8 8 6 5 5 6 6 6 5 5 4 4 5 5 6 5 5 5 5 6 6 6 6 7 6 6 7 6 7 9 12 11 11 11 12 12 11 10 9 6 5 6 7 6 6 6 6 7 7 5 5 5 5 5 5 5 5 4 4 4
6 6 6 6 7 8 8 8 8 8 7 6 6 7 7 6 5 4 4 5 5 6 6 6 6 6 6 6 6 6 6 6 6 6 6 6 6 7 9 13 14 13 12 12 13 12 10 9 6 5 5 6 6 6 6 7 7 6 6 5 4 4 4 5 5 5 5 5 5
6 7 7 8 9 9 8 8 7 6 6 6 7 8 8 6 5 5 5 5 5 5 5 5 6 6 6 6 6 6 6 6 6 7 7 7 7 8 10 13 15 15 13 12 13 12 11 9 7 6 6 5 5 6 7 7 7 7 6 6 5 4 5 5 5 5 5 6 6
6 7 8 8 9 9 8 7 6 5 5 5 6 7 7 6 5 5 5 6 6 5 5 5 6 7 7 7 7 7 7 7 8 8 8 8 9 10 11 13 14 15 14 13 13 12 10 8 7 6 6 5 5 6 8 9 8 8 7 7 6 5 5 5 5 5 6 7 7
6 6 7 7 7 7 6 5 5 5 5 6 7 7 6 5 5 6 6 6 5 5 6 6 7 8 8 8 8 8 8 8 9 9 9 9 9 10 11 11 13 14 14 13 12 11 10 8 6 6 5 5 5 6 8 10 10 9 8 7 6 6 5 5 5 6 6 7 7
6 6 5 5 5 5 5 5 5 5 6 7 7 6 6 5 5 5 5 5 5 6 6 7 8 8 8 8 8 8 7 8 8 8 7 7 8 9 10 10 12 13 13 12 11 10 9 7 6 6 6 5 6 8 9 10 10 9 8 6 7 7 7 6 7 7 7 7 7
6 5 4 4 5 5 5 4 4 5 6 7 7 6 6 5 5 4 4 4 6 7 8 8 9 9 8 8 7 7 7 6 5 5 4 6 8 9 10 10 12 13 12 11 9 8 7 7 7 7 7 6 7 8 9 10 10 10 8 6 8 9 9 8 7 7 7 7 7
5 5 4 4 5 5 4 4 4 4 5 6 7 6 6 5 4 4 4 5 7 7 8 9 9 9 8 7 6 6 6 4 3 4 5 8 9 10 10 11 12 12 11 10 8 7 7 7 8 8 9 8 7 7 8 10 10 10 9 8 9 9 9 9 8 7 6 6 6
5 5 5 5 5 5 5 5 5 5 5 6 6 6 5 4 3 4 5 6 7 7 7 7 8 8 7 6 6 5 4 3 4 6 7 8 8 9 9 9 10 11 10 9 7 7 7 8 9 10 10 9 7 7 8 10 10 10 10 10 9 9 9 9 8 6 5 5 5
5 5 5 5 5 5 5 5 5 5 5 6 6 5 4 3 3 3 5 6 7 7 7 6 6 6 6 7 5 4 4 5 6 7 8 7 7 7 8 8 9 9 8 7 7 7 7 8 9 10 10 10 9 8 9 9 10 10 10 10 10 9 9 8 7 6 5 5 5
5 5 5 5 5 5 5 5 4 5 5 6 5 5 4 3 3 3 4 6 6 7 6 5 5 5 6 6 4 4 6 7 8 8 8 7 7 6 7 7 8 7 7 7 6 7 7 8 9 9 10 10 10 9 9 9 9 10 10 10 10 9 8 8 7 7 6 6 5
5 4 4 4 4 4 5 4 4 4 4 5 5 4 3 3 3 3 4 5 5 5 6 6 5 5 4 1 4 6 8 9 9 9 8 7 7 7 7 7 7 7 7 7 6 6 6 7 8 8 9 10 10 10 9 9 9 9 9 9 9 8 8 7 8 8 7 7 6
5 4 4 4 5 5 5 5 5 5 5 6 5 5 4 3 3 3 3 4 4 5 5 6 6 5 4 4 6 7 9 9 9 8 8 8 8 7 7 6 6 6 6 6 6 6 6 6 6 7 8 9 9 10 10 10 9 9 9 8 8 7 7 7 8 7 7 7 7
5 5 4 4 5 5 5 5 5 6 7 7 7 6 4 3 3 3 3 3 3 4 5 5 5 6 6 6 6 6 7 8 8 7 7 7 7 7 6 6 6 5 5 6 6 6 7 7 6 7 7 8 8 9 9 9 9 9 8 8 7 7 7 7 7 7 7 7 7
5 5 5 5 5 5 5 5 5 6 7 7 7 6 5 4 3 3 2 3 3 3 3 3 3 4 5 6 6 5 5 6 7 7 6 6 6 6 6 6 6 5 5 5 6 7 7 7 7 7 7 7 8 8 8 8 8 8 7 7 6 6 6 6 6 6 6 7 7
5 5 5 5 5 5 4 4 5 6 6 7 7 6 5 3 2 2 2 2 2 2 2 2 1 2 3 4 5 5 4 4 6 6 6 6 6 6 6 6 6 6 5 6 6 7 8 8 8 8 8 8 8 8 8 8 7 7 6 5 5 5 5 5 5 6 6 6 6
6 5 5 5 5 4 3 4 4 5 6 6 5 4 3 2 1 1 2 1 1 1 2 1 0 2 2 3 4 4 4 3 4 5 5 5 6 6 6 6 6 6 6 6 6 7 8 8 8 8 8 8 8 8 7 7 6 5 4 3 3 3 4 4 4 5 5 5 5
6 5 4 4 4 3 2 3 4 5 6 6 4 2 1 1 1 1 1 1 1 1 1 1 1 1 2 2 3 3 3 3 3 4 4 4 5 5 5 6 6 6 6 6 7 7 8 8 8 8 7 7 7 7 6 6 6 5 4 3 3 4 4 4 4 4 4 4 4
6 5 3 3 3 2 2 2 4 5 5 5 3 2 1 1 1 1 1 1 2 2 2 1 1 1 2 2 2 3 3 3 3 3 4 4 4 5 5 5 6 7 7 6 7 7 8 8 8 7 7 6 6 6 6 6 6 5 5 5 5 6 6 5 5 5 5 5 4
7 5 4 2 2 2 1 1 3 4 5 4 4 2 2 1 1 1 1 2 3 3 3 2 2 2 2 2 2 2 3 3 3 3 3 4 4 5 5 5 6 6 6 6 6 7 7 7 6 6 6 6 6 6 6 6 6 6 6 7 7 7 7 6 6 6 6 6 6
6 5 4 3 2 2 1 2 3 4 4 4 3 3 2 2 2 2 2 3 4 4 3 2 2 2 2 2 2 2 2 2 3 3 4 5 5 5 5 5 5 5 5 5 7 8 8 7 6 6 6 6 6 6 6 6 6 7 7 8 8 8 8 8 8 8 8 8 8
6 5 5 4 3 2 2 3 3 4 4 4 3 3 2 3 3 3 3 4 5 5 4 2 2 2 2 2 2 2 2 2 2 4 4 5 5 5 5 4 4 4 5 6 9 10 10 9 8 7 6 6 6 6 6 6 6 7 7 8 8 9 9 9 8 9 9 9 9
6 6 5 4 4 3 3 3 4 4 4 4 3 2 1 2 3 4 4 5 4 3 2 1 1 2 2 2 3 3 3 2 2 3 4 4 5 5 5 4 4 4 5 8 10 11 11 11 10 9 8 6 6 6 6 6 6 7 7 7 7 8 9 10 10 10 9 9 9
5 5 5 5 5 5 4 4 4 4 4 4 3 1 0 1 2 3 3 2 2 1 2 2 2 2 2 3 3 4 4 4 4 3 4 4 4 5 5 4 4 5 7 10 12 12 12 12 12 11 9 7 6 6 7 7 7 6 6 6 6 7 8 9 9 10 10 9 8
5 4 4 5 5 5 5 5 5 4 3 3 2 1 0 0 0 1 2 3 3 3 3 2 2 2 3 3 4 5 5 5 4 4 4 4 4 4 4 4 4 6 9 12 13 13 12 13 13 12 11 9 7 6 6 6 6 6 6 5 5 6 6 7 8 9 9 9 9
4 4 4 5 5 5 5 5 5 4 3 2 1 0 1 2 2 3 4 4 4 3 3 3 3 4 4 5 4 4 4 4 4 5 5 5 5 5 4 4 5 6 9 12 13 13 13 14 14 14 13 11 8 7 6 6 6 5 5 5 5 6 6 7 9 9 9 9 9
4 4 4 5 5 5 5 5 4 3 1 1 2 3 4 5 6 6 6 5 5 5 5 6 6 6 6 5 5 4 4 4 5 5 5 6 5 5 5 5 5 6 8 12 13 13 14 15 15 15 14 12 9 7 6 6 6 5 5 5 6 6 7 7 8 9 10 9 9
4 4 4 5 5 4 3 3 2 2 3 5 6 7 8 8 8 8 7 6 7 7 8 8 8 8 7 6 6 5 5 5 5 5 5 5 5 6 6 6 6 7 9 13 14 15 16 16 16 15 14 12 10 8 7 7 6 6 6 7 7 7 7 6 7 9 10 9 9
5 5 4 4 4 4 4 5 6 7 8 9 9 9 9 9 9 8 8 7 7 8 8 8 8 8 7 7 6 6 6 5 6 6 6 6 6 6 6 6 7 9 12 15 16 17 17 17 17 16 15 13 10 8 8 7 7 6 6 7 7 7 7 7 8 8 9 9 9
6 5 4 4 5 6 7 8 8 9 9 10 9 9 9 9 9 9 8 7 7 7 8 8 8 7 7 7 6 6 6 6 7 7 7 7 7 7 7 6 6 9 13 17 18 18 18 18 17 17 15 13 10 8 8 8 7 7 7 7 7 7 8 8 8 9 9 9 9
6 6 5 6 7 8 8 8 9 9 10 10 9 9 8 8 8 8 8 7 8 8 8 7 7 7 7 8 8 7 7 7 7 7 7 8 8 8 8 7 8 11 15 17 18 18 18 18 18 17 15 12 9 8 8 9 8 8 8 9 8 8 8 8 8 9 9 9 10
7 6 6 7 8 8 8 9 9 9 10 9 9 8 8 8 7 7 6 7 8 8 8 8 7 8 8 8 8 8 7 7 7 8 8 8 9 9 9 9 9 11 14 16 17 18 18 18 18 17 14 11 8 8 8 8 8 9 9 9 9 9 9 9 9 8 9 9 9
7 7 7 7 8 8 8 8 9 9 9 9 8 8 7 7 7 6 5 5 7 8 8 8 8 8 8 9 8 8 7 7 8 8 8 8 9 10 10 9 9 10 12 15 16 17 18 18 18 16 13 10 8 8 8 7 7 8 9 9 9 9 8 8 8 8 8 8 9
7 7 6 7 8 8 8 8 8 9 9 8 8 7 7 7 6 5 5 5 7 8 8 8 8 8 8 8 8 8 8 8 8 8 8 8 8 9 10 10 9 9 10 13 15 16 17 17 17 15 13 10 9 8 7 7 7 7 8 8 8 8 7 7 7 7 8 9 11
7 6 6 7 7 7 8 8 8 8 8 8 7 7 7 7 6 5 5 5 6 7 8 8 8 7 7 8 8 9 9 9 9 9 8 8 8 8 9 10 9 8 9 11 13 15 16 16 16 15 13 10 9 8 7 7 8 8 8 7 7 7 7 6 6 7 8 11 14
7 6 6 6 6 7 7 7 7 7 6 7 7 7 7 6 6 5 5 5 6 7 7 8 8 8 7 8 9 9 9 9 9 8 8 8 8 8 9 9 9 9 9 10 12 14 15 15 15 15 13 9 8 7 7 7 8 8 8 7 7 7 6 6 6 6 7 9 12
6 6 6 6 6 6 6 6 6 6 6 7 7 7 6 5 5 6 6 6 6 7 7 7 8 8 8 8 8 8 9 9 8 8 8 8 8 8 8 8 9 8 9 9 11 12 14 14 14 14 12 9 8 7 7 7 8 8 8 7 7 6 6 6 6 6 6 7 8
Wind_Direction
253 253 255 258 266 272 275 275 272 269 266 261 257 253 250 248 249 250 250 250 252 253 254 251 247 245 243 238 233 236 243 251 257 261 262 261 259 255 248 233 203 181 170 169 175 183 191 194 193 189 180 169 162 159 157 152 152 153 154 154 152 152 153 154 153 151 148 144 143
261 259 261 265 271 274 274 272 268 264 261 258 255 253 251 250 251 252 253 251 250 249 249 248 244 241 239 234 229 232 242 255 264 270 271 268 259 252 243 229 200 179 172 174 180 184 188 187 182 175 166 161 156 155 156 156 156 158 160 160 157 155 156 157 156 151 147 143 139
271 270 270 272 271 270 269 267 263 258 256 255 253 252 252 251 252 253 254 251 248 245 244 246 244 242 239 234 229 229 237 248 257 262 264 262 254 245 235 222 200 188 186 190 188 185 180 173 166 159 154 154 154 155 158 159 159 160 162 162 158 157 157 159 154 150 146 145 144
277 275 273 271 266 263 261 262 262 260 258 256 254 253 252 250 251 251 252 252 249 247 245 246 247 245 239 234 230 230 232 235 240 244 248 249 244 235 226 219 210 204 201 199 193 183 170 159 155 154 153 153 154 156 158 157 159 160 160 160 156 154 155 154 150 148 146 146 147
283 277 272 269 265 262 260 260 260 261 262 262 261 258 255 251 250 250 251 253 252 251 248 246 247 246 241 234 233 233 233 230 230 232 237 242 234 222 215 216 218 216 209 202 194 183 168 153 151 152 154 155 156 155 153 150 153 154 154 153 153 153 152 148 145 146 146 146 148
288 282 277 272 268 265 263 261 259 259 262 265 263 261 259 256 254 254 255 258 258 255 250 248 248 247 244 238 236 236 236 232 229 230 233 237 228 212 206 210 217 218 213 204 193 181 168 152 148 148 152 154 155 152 148 146 149 151 153 154 156 153 148 144 144 145 147 149 154
286 283 280 277 274 272 270 268 266 264 263 263 261 259 259 260 261 262 263 267 267 264 260 257 255 255 252 247 241 238 235 234 233 233 233 234 225 211 204 204 208 210 208 202 190 179 165 149 145 146 148 150 150 150 150 151 153 155 157 159 159 154 148 145 144 146 148 152 160
285 283 282 282 281 280 278 274 268 262 258 254 254 254 255 258 261 264 267 270 272 272 272 271 268 265 261 254 246 239 234 233 236 236 236 234 222 208 199 196 197 198 198 194 185 172 157 145 142 143 145 146 147 151 155 157 158 159 160 159 158 154 150 147 146 147 149 154 165
289 289 290 291 290 285 278 267 257 252 251 254 252 250 249 251 257 262 267 270 272 274 275 274 271 267 263 258 249 241 235 234 238 241 240 234 214 198 188 184 184 186 187 186 178 163 148 139 139 140 143 145 147 152 157 159 160 160 158 155 153 151 149 146 146 147 149 154 169
290 291 293 294 288 281 274 268 263 262 264 266 262 257 251 248 253 260 267 273 279 281 280 278 276 273 270 265 257 249 242 240 243 243 237 218 190 176 169 169 175 178 179 178 171 155 140 134 137 140 143 144 147 151 155 159 159 158 157 153 150 148 148 147 147 148 152 160 174
286 284 282 278 278 280 283 285 282 279 277 275 272 266 258 252 255 262 272 282 287 288 287 286 284 282 278 272 266 258 252 247 243 229 203 174 159 156 158 165 172 173 172 170 161 149 137 134 137 140 142 144 146 150 154 156 156 155 153 150 149 148 149 150 150 153 159 170 180
279 272 267 266 275 283 288 291 288 283 279 276 273 269 264 260 264 274 285 292 293 293 291 289 286 283 278 273 268 262 254 241 212 177 157 145 144 149 158 168 169 167 163 158 150 143 137 138 139 140 142 145 148 151 154 155 154 153 151 149 149 149 151 152 154 158 166 176 183
269 262 261 268 275 280 282 281 277 273 271 270 269 268 267 267 277 290 298 301 301 298 293 288 283 279 277 273 266 254 233 201 167 150 141 136 141 151 161 168 165 158 152 145 141 138 138 140 141 141 143 145 148 151 153 154 153 152 150 149 150 151 152 154 157 162 170 179 183
266 261 262 272 276 278 277 275 270 265 263 263 263 264 266 275 291 303 308 309 306 301 295 291 283 275 268 261 251 225 185 159 144 135 131 132 142 153 161 165 161 152 143 137 136 136 138 140 141 142 142 144 145 147 150 152 151 150 150 150 151 151 152 153 158 165 174 183 183
269 262 264 273 277 279 279 276 271 266 262 261 262 265 272 289 306 315 315 312 307 304 303 306 298 282 267 249 215 169 145 134 127 125 125 131 141 151 158 161 158 148 138 135 135 136 138 139 141 142 142 143 144 146 149 150 150 149 148 149 149 149 151 156 164 173 181 185 185
273 265 264 268 272 276 279 280 281 279 276 274 275 282 294 312 320 321 319 313 309 310 316 325 320 308 293 247 134 126 123 120 120 123 129 137 144 151 155 158 152 143 136 135 135 135 136 138 140 141 142 143 144 146 148 147 146 145 144 144 146 149 155 164 173 179 183 184 186
275 266 262 263 268 273 280 288 293 296 297 297 299 303 312 323 325 323 318 312 314 321 329 338 341 346 3 52 92 105 112 117 122 128 136 143 147 149 149 148 143 137 134 134 133 132 132 133 136 140 142 144 146 146 146 145 142 141 141 143 148 157 166 174 177 180 182 184 188
275 268 265 266 270 276 282 290 296 299 301 304 305 308 314 321 316 312 310 308 316 326 335 345 357 12 29 52 75 91 104 116 123 130 136 142 142 140 137 135 132 131 131 131 131 132 132 132 134 138 141 143 145 145 144 141 139 140 143 149 158 167 174 177 178 179 181 185 189
275 272 269 269 272 277 284 288 292 296 298 299 299 302 308 310 302 294 294 298 310 322 330 343 11 33 46 60 74 83 94 107 118 124 129 133 131 130 129 130 131 131 131 132 133 134 134 135 136 137 138 139 140 140 139 138 139 143 149 158 166 172 176 177 177 178 181 185 185
271 266 264 266 270 278 286 288 292 295 296 295 293 296 301 300 285 273 271 282 299 309 312 307 36 75 77 77 83 87 92 100 114 121 125 127 128 130 133 136 137 137 138 138 138 137 137 137 137 136 135 134 134 134 135 136 139 145 153 163 171 176 178 177 176 178 179 180 176
272 262 258 260 266 275 287 293 297 300 299 296 293 293 295 287 260 242 241 263 282 289 288 281 137 110 102 93 93 95 98 103 115 121 125 127 132 137 141 142 144 144 144 143 142 140 139 137 136 134 132 131 131 132 133 135 138 144 151 162 166 165 163 159 158 160 161 162 161
287 279 269 264 264 267 278 296 304 305 304 302 300 294 267 206 205 202 200 211 234 240 236 198 126 111 106 102 102 103 103 104 112 119 126 131 139 144 146 147 148 148 147 145 143 140 139 136 133 131 130 129 128 127 127 128 130 133 135 133 122 112 108 108 112 115 116 117 124
297 296 288 272 263 253 258 296 304 306 307 308 308 299 262 196 192 181 170 173 201 207 201 171 148 130 116 106 106 108 109 110 113 120 129 138 145 149 150 150 150 150 148 146 143 140 137 133 130 127 125 124 121 118 117 119 123 125 123 116 104 96 90 88 90 90 89 85 83
299 300 299 284 270 259 264 307 304 303 304 305 303 294 274 246 219 187 170 176 200 206 204 185 160 143 125 107 107 112 120 125 129 133 139 147 151 153 153 152 151 150 148 147 143 140 137 132 129 126 122 119 115 113 112 114 119 122 121 116 109 101 94 89 88 86 83 78 73
300 303 304 302 300 303 317 324 307 299 294 289 284 270 248 228 212 195 188 192 205 210 210 196 167 143 126 114 111 117 127 140 147 151 154 156 156 155 153 151 150 149 146 143 139 136 133 130 129 126 123 118 115 112 110 110 115 118 120 119 116 112 105 97 91 86 83 80 78
304 307 309 310 313 318 325 327 316 305 295 284 273 253 228 211 203 198 198 203 210 211 209 197 168 138 123 118 114 112 115 131 149 156 158 158 155 152 149 147 147 146 142 138 137 134 131 128 126 124 123 122 120 116 113 110 112 115 118 120 121 119 115 108 99 92 87 83 83
311 311 311 314 318 321 324 326 321 315 308 300 296 279 217 198 201 202 204 206 207 203 192 166 134 113 104 105 102 98 95 95 111 127 137 143 143 143 142 140 141 140 138 137 137 134 131 127 124 122 121 122 122 120 117 114 112 113 115 118 120 121 120 116 111 104 97 90 87
318 316 317 325 326 326 324 322 319 313 306 299 303 309 232 198 206 205 199 187 155 120 98 92 89 87 87 89 90 88 85 82 83 89 98 110 118 124 127 128 130 132 135 137 137 134 131 127 124 122 120 119 119 117 116 115 115 115 115 116 117 118 119 118 115 111 107 101 95
321 322 329 336 330 325 320 316 310 302 292 276 282 287 270 230 184 106 90 87 85 85 85 85 83 83 83 84 84 82 81 80 80 81 83 88 95 102 109 114 120 129 134 137 136 134 130 127 124 122 120 118 118 118 118 119 119 118 117 116 118 119 118 117 114 112 110 107 102
328 332 335 332 321 313 306 299 293 287 277 249 240 58 44 40 44 53 64 74 81 85 88 89 87 85 84 84 83 81 81 82 85 88 89 91 93 96 102 109 120 130 135 138 135 131 128 126 124 121 119 116 116 117 119 121 120 119 117 115 117 118 118 117 116 114 112 110 106
334 332 327 316 306 297 291 286 285 283 278 117 74 61 56 56 55 55 57 63 69 74 76 77 76 75 74 73 72 73 76 82 87 91 94 96 97 99 102 107 116 125 129 131 128 125 124 123 120 118 116 114 113 115 117 117 115 114 113 114 115 116 117 116 116 115 114 113 109
337 329 318 307 301 301 308 326 349 22 55 71 69 66 64 63 62 61 60 63 69 74 76 77 77 76 73 69 66 65 67 72 78 82 86 90 91 92 94 99 107 113 117 119 118 118 118 117 115 113 111 109 107 107 108 108 105 105 105 107 109 111 112 113 113 112 112 111 109
342 333 323 317 333 3 26 38 48 58 66 71 72 72 71 68 65 62 59 59 65 69 72 75 76 76 75 73 70 67 66 70 73 74 76 78 80 83 86 90 99 106 110 112 113 113 113 112 111 109 107 105 103 102 102 102 100 99 99 100 100 101 103 104 105 106 106 105 104
350 346 351 16 39 47 50 51 57 64 69 71 71 70 70 70 67 64 61 59 61 63 65 67 69 70 70 68 67 65 63 65 67 69 71 72 74 76 79 84 95 105 108 110 111 111 111 111 109 108 105 102 100 99 98 98 97 97 96 96 95 95 95 96 97 98 99 100 100
1 9 26 48 56 58 57 57 59 63 66 69 67 65 64 66 67 67 66 65 65 64 63 62 64 65 65 63 60 59 59 62 65 69 72 76 77 78 79 83 94 103 107 110 111 112 112 112 110 108 105 101 98 97 97 96 96 95 95 95 93 91 91 91 92 93 94 97 100
12 23 40 55 58 60 60 60 62 63 64 66 65 63 61 60 62 65 68 71 70 68 65 62 62 63 64 62 59 56 56 61 68 72 76 80 83 84 84 85 92 100 105 110 112 113 113 113 111 108 105 102 100 98 98 96 96 95 94 93 91 90 90 91 92 93 94 97 101
17 27 42 55 58 60 61 62 62 62 63 62 61 60 58 58 57 58 62 71 74 72 68 64 63 63 64 66 63 58 55 59 67 72 76 80 85 89 90 89 90 96 103 109 112 114 114 114 113 111 109 106 105 104 102 100 98 96 94 93 91 91 91 92 94 95 97 99 103
17 28 43 56 61 63 63 63 63 63 63 61 59 57 55 55 54 52 53 66 77 79 76 70 66 65 66 68 67 62 57 57 64 70 75 77 84 90 93 92 90 92 98 106 111 114 115 115 115 114 113 112 112 110 108 106 104 101 99 96 94 92 92 94 96 97 99 103 107
18 28 42 55 63 67 68 67 67 68 68 68 65 61 58 56 54 51 52 61 74 80 81 76 70 67 66 67 69 65 61 57 61 66 71 74 79 86 91 94 92 91 95 102 109 113 115 116 116 116 115 114 115 114 113 111 109 107 104 102 99 96 93 94 96 99 103 106 110
19 28 40 52 60 66 70 72 72 73 75 77 75 72 68 65 63 60 60 62 69 74 77 76 72 68 66 66 69 68 65 60 60 63 68 72 75 79 85 92 93 92 93 98 106 111 115 117 117 117 117 115 116 117 116 116 113 111 109 107 105 102 99 96 97 100 105 109 112
21 30 39 49 56 64 69 73 73 74 76 78 79 79 77 76 74 71 69 69 69 71 72 73 70 68 66 66 69 69 68 65 61 63 67 71 72 75 80 88 91 93 94 97 104 110 114 116 117 118 118 118 118 119 119 118 116 114 113 112 111 109 106 103 101 101 105 109 113